OIBS  Sirri Island Airport

Add Bookmark

Iran

Status IATA
Operational SXI
Latitude Longitude
25° 54' 32" N 54° 32' 21" E
25.908899 54.539398
Local (DST + 5) UTC (GMT + 4)
Sep 23, 2014 01:47 Sep 22, 2014 22:17
Sunrise-Sunset Local UTC
Begin Civil Twilight 05:16 01:46
Sunrise 05:39 02:09
Sunset 05:48 14:18
End Civil Twilight 06:11 14:41

Current Weather

METAR Observed VFR
OIBS 221500Z 00000KT CAVOK 34/28 Q1004 Mon, Sep 22, 2014 @ 15:00 UTC
(7 Hours, 17 Minutes ago)
Visual Flight Rules
Wind Visibility Clouds Conditions
Calm 10 km or more
  • Clear skies
  • No significant weather
Temperatures Readings Precipitation
Current Temp 34°C (93°F)
Dewpoint 28°C (82°F)
Heat Index 47°C (116°F)
Humidity 71%
Altimeter 29.65"Hg
Sea Level Pressure 1004mb
Field Elevation 45.93'
None Recorded

Additional weather within a 92.6km radius of OIBS

Map ICAO Location
OIBA 49.4km E (094°)
OIBL 74.8km N (022°)
OIBK 88.3km N (321°)

24 Hour Weather History

Loading
-

24 Hour Weather Graphs

Loading
-

CheckWX.com is intended as a tool to help pilots better visualize weather data. It is not intended as a substitute for an official weather briefing obtained from a Flight Service Station. CheckWX.com does not meet the FAA requirements for an official pre-flight weather briefing. Therefore, it's important that pilots still call and obtain an official FSS pre-flight weather briefing.